Skagway, AK

3:20 PM AKDT on April 20, 2018 (GMT -0800)
Skagway

Weather History for PAGY - August, 2012

Change the Weather History Date:

Tuesday, August 14, 2012

  Actual Average Record
Temperature  
Mean Temperature 58 °F -  
Max Temperature 68 °F 63 °F 76 °F (1968)
Min Temperature 51 °F 49 °F 37 °F (1984)
Degree Days  
Heating Degree Days 6    
Growing Degree Days 8 (Base 50)    
Moisture  
Dew Point 49 °F    
Average Humidity 75    
Maximum Humidity 92    
Minimum Humidity 54    
Precipitation  
Precipitation 0.00 in - - ()
Sea Level Pressure  
Sea Level Pressure 30.15 in    
Wind  
Wind Speed 4 mph (WNW)    
Max Wind Speed 20 mph    
Max Gust Speed 18 mph    
Visibility 10 miles    
Events      
Averages and records for this station are not official NWS values.
T = Trace of Precipitation, MM = Missing Value Source: NWS Daily Summary

Daily Weather History Graph

Daily Weather History Graph

Search for Another Location

Airport or City:

Astronomy

Aug. 14, 2012 Rise Set
Actual Time 5:17 AM AKDT 8:52 PM AKDT
Civil Twilight 4:26 AM AKDT 9:42 PM AKDT
Nautical Twilight 3:13 AM AKDT 10:54 PM AKDT
Astronomical Twilight 1:38 AM AKDT 12:33 AM AKDT
Moon 1:56 AM AKDT (8/14) 7:09 PM AKDT (8/14)
Length of Visible Light 17h 15m
Length of Day
15h 35m
Waning Crescent, 9% of the Moon is Illuminated
Aug 14
Waning Crescent
Aug 17
New
Aug 24
First Quarter
Aug 31
Full
Sep 8
Last Quarter

Hourly Weather History & Observations

Time (AKDT) Temp. Dew Point Humidity Pressure Visibility Wind Dir Wind Speed Gust Speed Precip Events Conditions
12:53 AM 54.0 °F 50.0 °F 86% 30.10 in 10.0 mi Calm Calm - N/A   Clear
1:53 AM 52.0 °F 48.9 °F 89% 30.11 in 10.0 mi Calm Calm - N/A   Clear
2:53 AM 51.1 °F 48.9 °F 92% 30.14 in 10.0 mi NNE 3.5 mph - N/A   Clear
3:53 AM 51.1 °F 48.9 °F 92% 30.14 in 10.0 mi Calm Calm - N/A   Clear
4:53 AM 51.1 °F 48.0 °F 89% 30.15 in 10.0 mi NNE 3.5 mph - N/A   Clear
5:53 AM 51.1 °F 48.0 °F 89% 30.16 in 10.0 mi NNE 4.6 mph - N/A   Clear
6:53 AM 51.1 °F 48.0 °F 89% 30.17 in 10.0 mi NE 5.8 mph - N/A   Clear
7:53 AM 52.0 °F 48.9 °F 89% 30.19 in 10.0 mi NNE 3.5 mph - N/A   Clear
8:53 AM 57.9 °F 50.0 °F 75% 30.18 in 10.0 mi NE 4.6 mph - N/A   Clear
9:53 AM 59.0 °F 51.1 °F 75% 30.17 in 10.0 mi SSW 3.5 mph - N/A   Clear
10:53 AM 54.0 °F 48.9 °F 83% 30.17 in 10.0 mi WSW 5.8 mph - N/A   Clear
11:53 AM 55.0 °F 48.9 °F 80% 30.17 in 10.0 mi WSW 4.6 mph - N/A   Clear
12:53 PM 57.9 °F 48.9 °F 72% 30.16 in 10.0 mi WSW 6.9 mph - N/A   Clear
1:53 PM 62.1 °F 50.0 °F 65% 30.16 in 10.0 mi SW 5.8 mph - N/A   Clear
2:53 PM 66.0 °F 48.9 °F 54% 30.15 in 10.0 mi WSW 5.8 mph - N/A   Clear
3:53 PM 64.9 °F 48.0 °F 54% 30.12 in 10.0 mi WSW 10.4 mph - N/A   Clear
4:53 PM 66.0 °F 48.9 °F 54% 30.12 in 10.0 mi SSW 19.6 mph - N/A   Clear
5:53 PM 63.0 °F 48.0 °F 58% 30.12 in 10.0 mi WSW 13.8 mph - N/A   Clear
6:53 PM 64.0 °F 48.0 °F 56% 30.12 in 10.0 mi WSW 11.5 mph 18.4 mph N/A   Clear
7:53 PM 63.0 °F 48.9 °F 60% 30.13 in 10.0 mi Calm Calm - N/A   Clear
8:53 PM 60.1 °F 50.0 °F 69% 30.14 in 10.0 mi NNE 3.5 mph - N/A   Clear
9:53 PM 57.9 °F 51.1 °F 78% 30.16 in 10.0 mi Calm Calm - N/A   Clear
10:53 PM 55.9 °F 50.0 °F 80% 30.16 in 10.0 mi ENE 3.5 mph - N/A   Clear
11:53 PM 54.0 °F 48.9 °F 83% 30.18 in 10.0 mi Calm Calm - N/A   Clear